Regional Weather Roundup
Issued by NWS

Home | Current Version | Previous Version | Text Only | Print | Product List | Glossary On
Versions: 1 2 3 4 5 6 7 8 9 10 11 12 13 14 15 16 17 18 19 20 21 22 23 24 25 26 27 28 29 30 31 32 33 34 35 36 37 38 39 40 41 42 43 44 45 46 47 48
000
ASUS46 KPQR 280810
RWROR

OREGON REGIONAL WEATHER ROUNDUP
NATIONAL WEATHER SERVICE PORTLAND OR
1200 AM PST SUN DEC 28 2014

NOTE: "FAIR" INDICATES FEW OR NO CLOUDS BELOW 12,000 FEET WITH
NO SIGNIFICANT WEATHER AND/OR OBSTRUCTIONS TO VISIBILITY.

ORZ001>013-280900-
NORTHWEST OREGON


CITY           SKY/WX    TMP DP  RH WIND       PRES   REMARKS
ASTORIA        LGT RAIN  46  39  76 W13       30.17F
NEWPORT        CLOUDY    50  41  71 W10G18    30.30F
PORTLAND       LGT RAIN  44  40  85 SW8       30.21R
VANCOUVER WA   LGT RAIN  43  40  89 CALM      30.20S
SCAPPOOSE      LGT RAIN  41  38  89 W6        30.19R
HILLSBORO      LGT RAIN  39  39 100 NE3       30.20S
AURORA         CLOUDY    43  40  89 S6        30.23R
MCMINNVILLE    LGT RAIN  45  40  82 SW9       30.23S
SALEM          MOCLDY    45  40  82 S10       30.24R
CORVALLIS      MOCLDY    45  39  81 W8        30.28R
EUGENE         LGT RAIN  45  43  93 SW6       30.28R
$$

ORZ021-028-280900-
SOUTHWEST OREGON


CITY           SKY/WX    TMP DP  RH WIND       PRES   REMARKS
NORTH BEND     CLOUDY    52  52 100 NW12      30.34R
BROOKINGS      LGT RAIN  46  44  93 VRB5      30.38S
ROSEBURG       LGT RAIN  45  43  93 CALM      30.31S FOG
SEXTON SUMMIT  CLOUDY    32  30  92 SW15G24   30.24F WCI  22
MEDFORD        CLOUDY    40  36  86 CALM      30.34F
$$

ORZ014>016-041-280900-
COLUMBIA GORGE


CITY           SKY/WX    TMP DP  RH WIND       PRES   REMARKS
TROUTDALE      LGT RAIN  45  39  79 W5        30.19S
THE DALLES     CLOUDY    44  36  73 NW10      30.11S
$$

ORZ029>031-041-044-049-050-061>064-502-503-505>511-280900-
EASTERN OREGON


CITY           SKY/WX    TMP DP  RH WIND       PRES   REMARKS
REDMOND        MOCLDY    36  31  82 N5        30.10R WCI  32
BEND           PTCLDY    32  28  86 SE3       30.10S
PRINEVILLE     MOCLDY    36  32  87 W5        30.10F WCI  32
KLAMATH FALLS  CLOUDY   N/A N/A N/A S10       30.22F
LAKEVIEW       CLOUDY    34  25  69 S13       30.19F WCI  25
HERMISTON      CLEAR     40  30  67 SW15      30.05S WCI  32
PENDLETON      CLEAR     39  28  64 W24G38    30.02S WCI  28
JOHN DAY       LGT SNOW  33  32  96 W6        30.06S WCI  27
MEACHAM        PTCLDY    30  25  81 VRB3      29.98F
LA GRANDE      PTCLDY    28  16  59 SE3       30.02R
BAKER CITY     NOT AVBL
BURNS          MIX PCPN  34  30  85 SW16      30.05F WCI  24
ROME             N/A     39  23  52 S20G26    30.07F WCI  29
ONTARIO        CLOUDY    31  28  89 CALM      30.11F
$$


USA.gov is the U.S. government's official web portal to all federal, state and local government web resources and services.